LEMUR-2-THENICKMOLO (43185 NORAD) Tracking and Keplerian Element Data

This shows tracking and keplerian element data for the satellite.

Feedback or suggestion? Click here.




ElementValue
Catalog43185
NameLEMUR-2-THENICKMOLO
Epoch Orbit443
Epoch Day61.98182676
Epoch Year2018
RAAN331.7289
Inclination97.7268
Eccentricity0.0013912
Argument of Perigee145.3993
Mean Anonmoly214.8132
Mean Motion14.95809915
Decay Rate1.241E-05
L11 43185U 18014F 18061.98182676 .00001241 00000-0 11619-3 0 9997
L22 43185 97.7268 331.7289 0013912 145.3993 214.8132 14.95809915 4438

Live tracking and technical data element details for LEMUR-2-THENICKMOLO (NORAD 43185). LEMUR-2-THENICKMOLO can be tracked NOW for your location showing map with azimuth and elevation plus other details from your city location.

Track the satellite on the map from your city or location and see movement details for azimuth, elevation, latitude, longitude, range, height, and movement on the map or in text.







IsCatalogInMostPopularTable: catalog: 43185, numindb: 130
Update: records affected: 1



GetName: 43185 LEMUR-2-THENICKMOLO

Hit Count: updated at: Mon, 19 Nov 2018 13:42:08 GMT